Satellite: MET-2/21
Catalog number: 22782
Epoch time:      09316.42270704
Element set:     616
Inclination:      082.5479 deg
RA of node:       064.4156 deg
Eccentricity:    0.0021074
Arg of perigee:   292.7832 deg
Mean anomaly:     067.1110 deg
Mean motion:   13.83641257 rev/day
Decay rate:        4.6e-07 rev/day^2
Epoch rev:           81810
Checksum:              287

Satellite: OKEAN-4
Catalog number: 23317
Epoch time:      09316.70240888
Element set:      70
Inclination:      082.5418 deg
RA of node:       195.8914 deg
Eccentricity:    0.0020636
Arg of perigee:   233.9626 deg
Mean anomaly:     125.9702 deg
Mean motion:   14.82736517 rev/day
Decay rate:       1.22e-06 rev/day^2
Epoch rev:           81437
Checksum:              304

Satellite: NOAA-14
Catalog number: 23455
Epoch time:      09316.79266694
Element set:     827
Inclination:      098.8974 deg
RA of node:       033.8614 deg
Eccentricity:    0.0010167
Arg of perigee:   126.9784 deg
Mean anomaly:     233.2321 deg
Mean motion:   14.13771306 rev/day
Decay rate:      -2.08e-06 rev/day^2
Epoch rev:           76692
Checksum:              331

Satellite: NOAA-15
Catalog number: 25338
Epoch time:      09316.93231600
Element set:     153
Inclination:      098.5994 deg
RA of node:       302.9903 deg
Eccentricity:    0.0010597
Arg of perigee:   350.1782 deg
Mean anomaly:     009.9202 deg
Mean motion:   14.24792614 rev/day
Decay rate:       1.48e-06 rev/day^2
Epoch rev:           59795
Checksum:              317

Satellite: RESURS
Catalog number: 25394
Epoch time:      09315.97802109
Element set:     355
Inclination:      098.3231 deg
RA of node:       340.7068 deg
Eccentricity:    0.0001926
Arg of perigee:   112.0386 deg
Mean anomaly:     248.0999 deg
Mean motion:   14.24190254 rev/day
Decay rate:       -3.0e-08 rev/day^2
Epoch rev:           58943
Checksum:              300

Satellite: FENGYUN1
Catalog number: 25730
Epoch time:      09315.95309887
Element set:     897
Inclination:      098.7702 deg
RA of node:       281.7849 deg
Eccentricity:    0.0021498
Arg of perigee:   153.6663 deg
Mean anomaly:     206.5590 deg
Mean motion:   14.08061899 rev/day
Decay rate:      1.118e-05 rev/day^2
Epoch rev:           54111
Checksum:              339

Satellite: OKEAN-0
Catalog number: 25860
Epoch time:      09315.99612104
Element set:     834
Inclination:      097.8051 deg
RA of node:       291.4524 deg
Eccentricity:    0.0001800
Arg of perigee:   069.3586 deg
Mean anomaly:     290.7822 deg
Mean motion:   14.73596496 rev/day
Decay rate:        3.3e-07 rev/day^2
Epoch rev:           55491
Checksum:              314

Satellite: NOAA-16
Catalog number: 26536
Epoch time:      09316.90210105
Element set:     633
Inclination:      099.1798 deg
RA of node:       324.1933 deg
Eccentricity:    0.0010055
Arg of perigee:   220.8753 deg
Mean anomaly:     139.1648 deg
Mean motion:   14.12537034 rev/day
Decay rate:      -1.69e-06 rev/day^2
Epoch rev:           47129
Checksum:              296

Satellite: NOAA-17
Catalog number: 27453
Epoch time:      09316.74185908
Element set:     626
Inclination:      098.4648 deg
RA of node:       010.5492 deg
Eccentricity:    0.0012491
Arg of perigee:   053.5318 deg
Mean anomaly:     306.6986 deg
Mean motion:   14.24106568 rev/day
Decay rate:       1.46e-06 rev/day^2
Epoch rev:           38389
Checksum:              333

Satellite: NOAA-18
Catalog number: 28654
Epoch time:      09316.78886042
Element set:     112
Inclination:      098.9238 deg
RA of node:       258.9773 deg
Eccentricity:    0.0013748
Arg of perigee:   306.6553 deg
Mean anomaly:     053.3359 deg
Mean motion:   14.11300520 rev/day
Decay rate:      -1.18e-06 rev/day^2
Epoch rev:           23091
Checksum:              312

Satellite: NOAA-19
Catalog number: 33591
Epoch time:      09316.80087611
Element set:     318
Inclination:      098.7629 deg
RA of node:       258.8020 deg
Eccentricity:    0.0014006
Arg of perigee:   178.7071 deg
Mean anomaly:     181.4133 deg
Mean motion:   14.11000157 rev/day
Decay rate:       -8.9e-07 rev/day^2
Epoch rev:            3939
Checksum:              295

/EX
SB KEPS @ AMSAT  $ORB09316.M
Orbital Elements  09316.MISC

HR AMSAT ORBITAL ELEMENTS FOR MANNED AND MISCELLANEOUS SATELLITES
FROM WA5QGD FORT WORTH,TX November 12, 2009
Send Subscribe/unsubscribe to KEPS at http://www.amsat.org/mailman/listinfo/kep
BID: ORB09316.M
TO ALL RADIO AMATEURS BT

Satellite: HUBBLE
Catalog number: 20580
Epoch time:      09316.14012007
Element set:     475
Inclination:      028.4700 deg
RA of node:       216.6501 deg
Eccentricity:    0.0003288
Arg of perigee:   057.2556 deg
Mean anomaly:     302.8388 deg
Mean motion:   15.00852723 rev/day
Decay rate:       3.68e-06 rev/day^2
Epoch rev:           87210
Checksum:              267

Satellite: ISS
Catalog number: 25544
Epoch time:      09317.03604006
Element set:     975
Inclination:      051.6431 deg
RA of node:       262.1837 deg
Eccentricity:    0.0006334
Arg of perigee:   326.7420 deg
Mean anomaly:     130.2932 deg
Mean motion:   15.76252177 rev/day
Decay rate:     2.7475e-04 rev/day^2
Epoch rev:           62940
Checksum:              285

